QPF
0.00 0.00 0.01 0.02 0.05 0.08 0.11 0.12 0.08 0.02 0.01 0.01 0.00 0.00 0.00 0.00 0.00 0.00 0.00 0.00 0.00 0.00 0.00 0.00 0.00 0.00 0.00 0.00 0.00 0.00 0.00 0.00 0.00 0.00 0.00 0.00 0.00 0.00 0.00 0.00 0.00 0.00 0.00 0.00 0.00 0.00 0.00 0.00 0.00
0.00 0.00 0.02 0.04 0.10 0.18 0.13 0.08 0.04 0.02 0.01 0.01 0.01 0.00 0.00 0.00 0.00 0.00 0.00 0.00 0.00 0.00 0.00 0.00 0.00 0.00 0.00 0.00 0.00 0.00 0.00 0.00 0.00 0.00 0.00 0.00 0.00 0.00 0.00 0.00 0.00 0.00 0.00 0.00 0.00 0.00 0.00 0.00 0.00
0.00 0.00 0.01 0.05 0.16 0.22 0.16 0.06 0.03 0.03 0.02 0.01 0.01 0.01 0.00 0.00 0.00 0.00 0.00 0.00 0.00 0.00 0.00 0.00 0.00 0.00 0.00 0.00 0.00 0.00 0.00 0.00 0.00 0.00 0.00 0.00 0.00 0.00 0.00 0.00 0.00 0.00 0.00 0.00 0.00 0.00 0.00 0.00 0.00
0.00 0.00 0.01 0.03 0.09 0.11 0.07 0.04 0.02 0.02 0.02 0.02 0.01 0.01 0.01 0.00 0.00 0.00 0.00 0.00 0.00 0.00 0.00 0.00 0.00 0.00 0.00 0.00 0.00 0.00 0.00 0.00 0.00 0.00 0.00 0.00 0.00 0.00 0.00 0.00 0.00 0.00 0.00 0.00 0.00 0.00 0.00 0.00 0.00
0.00 0.00 0.01 0.03 0.04 0.04 0.03 0.02 0.01 0.03 0.02 0.01 0.01 0.02 0.05 0.02 0.00 0.00 0.00 0.00 0.00 0.00 0.00 0.00 0.00 0.00 0.00 0.00 0.00 0.00 0.00 0.00 0.00 0.00 0.00 0.00 0.00 0.00 0.00 0.00 0.00 0.00 0.00 0.00 0.00 0.00 0.00 0.00 0.00
0.00 0.00 0.00 0.01 0.01 0.02 0.02 0.01 0.02 0.02 0.01 0.01 0.01 0.03 0.06 0.01 0.00 0.00 0.00 0.00 0.00 0.00 0.00 0.00 0.00 0.00 0.00 0.00 0.00 0.00 0.00 0.00 0.00 0.00 0.00 0.00 0.00 0.00 0.00 0.00 0.01 0.01 0.00 0.00 0.00 0.00 0.00 0.00 0.00
0.00 0.00 0.00 0.00 0.00 0.01 0.01 0.00 0.00 0.01 0.01 0.01 0.01 0.03 0.04 0.02 0.01 0.00 0.00 0.00 0.00 0.00 0.00 0.00 0.00 0.00 0.00 0.00 0.00 0.00 0.00 0.00 0.00 0.00 0.00 0.00 0.00 0.00 0.00 0.00 0.00 0.00 0.00 0.00 0.00 0.00 0.00 0.00 0.00
0.00 0.00 0.00 0.00 0.00 0.00 0.00 0.00 0.00 0.00 0.00 0.01 0.01 0.04 0.04 0.03 0.01 0.00 0.01 0.01 0.01 0.00 0.00 0.00 0.00 0.00 0.00 0.00 0.00 0.00 0.00 0.00 0.00 0.00 0.00 0.00 0.00 0.00 0.00 0.00 0.00 0.01 0.01 0.01 0.01 0.00 0.00 0.00 0.00
0.00 0.00 0.00 0.00 0.00 0.00 0.00 0.00 0.00 0.00 0.00 0.01 0.02 0.06 0.04 0.03 0.01 0.01 0.02 0.02 0.02 0.02 0.01 0.00 0.00 0.00 0.00 0.00 0.00 0.00 0.00 0.00 0.00 0.00 0.00 0.00 0.00 0.01 0.01 0.01 0.02 0.03 0.03 0.03 0.02 0.01 0.01 0.01 0.00
0.00 0.00 0.00 0.00 0.00 0.00 0.00 0.00 0.00 0.00 0.00 0.01 0.04 0.09 0.07 0.05 0.07 0.05 0.05 0.06 0.07 0.06 0.03 0.01 0.01 0.01 0.00 0.00 0.00 0.00 0.00 0.01 0.00 0.00 0.00 0.01 0.01 0.02 0.02 0.03 0.05 0.07 0.07 0.07 0.06 0.04 0.03 0.02 0.01
0.00 0.00 0.00 0.00 0.00 0.00 0.00 0.00 0.00 0.00 0.00 0.01 0.04 0.05 0.04 0.06 0.08 0.12 0.15 0.12 0.12 0.10 0.07 0.04 0.03 0.02 0.02 0.02 0.03 0.03 0.03 0.02 0.02 0.02 0.03 0.03 0.04 0.05 0.06 0.07 0.07 0.09 0.11 0.09 0.08 0.07 0.05 0.04 0.02
0.00 0.00 0.00 0.00 0.00 0.00 0.00 0.00 0.00 0.00 0.00 0.01 0.01 0.02 0.03 0.07 0.06 0.07 0.17 0.24 0.21 0.16 0.11 0.08 0.07 0.06 0.04 0.04 0.05 0.05 0.05 0.05 0.06 0.07 0.09 0.13 0.17 0.15 0.13 0.14 0.13 0.13 0.17 0.18 0.15 0.13 0.10 0.08 0.06
0.00 0.00 0.00 0.00 0.00 0.00 0.00 0.00 0.00 0.00 0.00 0.01 0.02 0.02 0.06 0.10 0.14 0.25 0.41 0.35 0.25 0.19 0.12 0.10 0.11 0.08 0.06 0.06 0.06 0.08 0.08 0.09 0.10 0.15 0.20 0.25 0.27 0.22 0.17 0.16 0.17 0.20 0.27 0.30 0.25 0.22 0.21 0.17 0.11
0.00 0.00 0.00 0.00 0.00 0.00 0.00 0.00 0.00 0.01 0.01 0.01 0.02 0.04 0.10 0.19 0.19 0.23 0.46 0.45 0.33 0.25 0.17 0.13 0.12 0.12 0.11 0.11 0.12 0.12 0.11 0.16 0.22 0.21 0.20 0.21 0.23 0.24 0.24 0.18 0.16 0.18 0.20 0.23 0.26 0.25 0.23 0.21 0.19
0.00 0.00 0.00 0.00 0.00 0.00 0.00 0.01 0.01 0.02 0.02 0.04 0.07 0.11 0.16 0.23 0.23 0.16 0.20 0.37 0.38 0.26 0.18 0.15 0.16 0.16 0.15 0.15 0.14 0.13 0.12 0.14 0.17 0.16 0.18 0.18 0.16 0.16 0.17 0.19 0.17 0.17 0.17 0.18 0.19 0.21 0.20 0.21 0.22
0.00 0.00 0.00 0.00 0.00 0.00 0.01 0.03 0.03 0.04 0.04 0.07 0.11 0.15 0.16 0.12 0.15 0.16 0.13 0.17 0.19 0.16 0.15 0.14 0.13 0.15 0.12 0.11 0.10 0.10 0.09 0.10 0.13 0.13 0.13 0.12 0.11 0.13 0.13 0.13 0.13 0.12 0.13 0.16 0.16 0.17 0.20 0.19 0.21
0.00 0.00 0.00 0.00 0.00 0.00 0.01 0.04 0.06 0.07 0.11 0.15 0.15 0.16 0.13 0.09 0.09 0.10 0.09 0.10 0.11 0.11 0.11 0.10 0.11 0.12 0.09 0.08 0.06 0.06 0.06 0.06 0.06 0.07 0.09 0.09 0.08 0.09 0.11 0.10 0.09 0.12 0.17 0.16 0.13 0.14 0.16 0.16 0.15
0.00 0.00 0.00 0.01 0.01 0.02 0.05 0.07 0.09 0.10 0.15 0.22 0.31 0.22 0.10 0.08 0.06 0.05 0.05 0.05 0.06 0.07 0.08 0.08 0.10 0.12 0.12 0.07 0.05 0.04 0.04 0.05 0.05 0.05 0.04 0.04 0.05 0.07 0.09 0.08 0.10 0.12 0.15 0.14 0.14 0.17 0.18 0.17 0.18
0.01 0.01 0.01 0.02 0.02 0.04 0.11 0.20 0.21 0.19 0.24 0.28 0.32 0.22 0.12 0.07 0.04 0.03 0.02 0.03 0.04 0.05 0.07 0.08 0.09 0.09 0.08 0.05 0.03 0.03 0.03 0.04 0.05 0.04 0.03 0.03 0.04 0.04 0.04 0.06 0.09 0.11 0.13 0.13 0.14 0.17 0.21 0.20 0.20
0.03 0.03 0.02 0.04 0.03 0.04 0.10 0.22 0.26 0.30 0.39 0.39 0.33 0.23 0.13 0.09 0.04 0.03 0.02 0.01 0.01 0.02 0.03 0.04 0.04 0.04 0.03 0.03 0.03 0.03 0.03 0.04 0.05 0.04 0.02 0.02 0.02 0.03 0.04 0.06 0.08 0.12 0.14 0.14 0.16 0.16 0.17 0.17 0.17
0.01 0.02 0.03 0.04 0.03 0.04 0.08 0.18 0.25 0.31 0.37 0.37 0.34 0.22 0.14 0.07 0.04 0.04 0.03 0.01 0.01 0.01 0.01 0.02 0.02 0.02 0.03 0.03 0.03 0.03 0.04 0.04 0.03 0.02 0.01 0.01 0.02 0.02 0.02 0.03 0.04 0.07 0.10 0.14 0.17 0.18 0.15 0.14 0.15
0.01 0.01 0.01 0.02 0.03 0.06 0.11 0.24 0.32 0.30 0.29 0.34 0.28 0.14 0.08 0.05 0.03 0.02 0.01 0.01 0.00 0.00 0.01 0.01 0.01 0.01 0.02 0.02 0.02 0.02 0.02 0.02 0.01 0.01 0.01 0.01 0.01 0.01 0.01 0.01 0.01 0.03 0.05 0.08 0.12 0.17 0.16 0.16 0.16
0.01 0.01 0.02 0.02 0.03 0.04 0.07 0.18 0.32 0.40 0.37 0.29 0.18 0.11 0.06 0.03 0.02 0.01 0.01 0.01 0.00 0.00 0.00 0.00 0.00 0.00 0.00 0.01 0.01 0.01 0.01 0.01 0.01 0.01 0.01 0.00 0.00 0.00 0.00 0.00 0.01 0.01 0.03 0.04 0.06 0.12 0.14 0.14 0.16
0.02 0.02 0.03 0.04 0.04 0.05 0.05 0.12 0.27 0.37 0.46 0.35 0.22 0.11 0.05 0.02 0.02 0.02 0.01 0.00 0.00 0.00 0.00 0.01 0.01 0.01 0.00 0.00 0.01 0.01 0.01 0.01 0.00 0.01 0.01 0.01 0.00 0.00 0.00 0.00 0.01 0.01 0.01 0.02 0.03 0.06 0.09 0.12 0.14
0.01 0.02 0.05 0.05 0.05 0.09 0.09 0.22 0.38 0.32 0.34 0.28 0.20 0.09 0.04 0.02 0.01 0.01 0.01 0.01 0.01 0.00 0.00 0.00 0.01 0.00 0.00 0.00 0.00 0.00 0.00 0.00 0.00 0.00 0.00 0.00 0.01 0.00 0.00 0.01 0.01 0.01 0.01 0.01 0.01 0.02 0.04 0.07 0.11
0.01 0.02 0.05 0.07 0.08 0.16 0.16 0.29 0.42 0.19 0.19 0.15 0.11 0.12 0.12 0.05 0.02 0.01 0.01 0.01 0.01 0.01 0.00 0.00 0.00 0.00 0.00 0.00 0.00 0.00 0.00 0.00 0.00 0.00 0.00 0.00 0.00 0.00 0.00 0.01 0.01 0.01 0.01 0.01 0.01 0.01 0.02 0.03 0.06
0.02 0.02 0.03 0.04 0.06 0.11 0.17 0.20 0.22 0.09 0.07 0.07 0.05 0.08 0.11 0.05 0.03 0.01 0.01 0.01 0.01 0.00 0.00 0.00 0.00 0.00 0.00 0.00 0.00 0.00 0.00 0.00 0.00 0.00 0.00 0.00 0.00 0.00 0.00 0.00 0.01 0.01 0.01 0.01 0.01 0.01 0.01 0.02 0.02
0.02 0.02 0.02 0.02 0.02 0.05 0.10 0.13 0.10 0.05 0.03 0.02 0.03 0.03 0.01 0.01 0.01 0.00 0.00 0.00 0.00 0.00 0.00 0.00 0.00 0.00 0.00 0.00 0.00 0.00 0.00 0.00 0.00 0.00 0.00 0.00 0.00 0.00 0.00 0.00 0.00 0.00 0.00 0.01 0.01 0.01 0.01 0.01 0.01
0.01 0.01 0.01 0.00 0.00 0.01 0.05 0.08 0.03 0.02 0.02 0.01 0.01 0.01 0.01 0.00 0.00 0.00 0.00 0.00 0.00 0.00 0.00 0.00 0.00 0.00 0.00 0.00 0.00 0.00 0.00 0.00 0.00 0.00 0.00 0.00 0.00 0.00 0.00 0.00 0.00 0.00 0.00 0.00 0.01 0.01 0.01 0.01 0.01
0.01 0.00 0.00 0.00 0.00 0.00 0.01 0.03 0.01 0.01 0.02 0.01 0.00 0.00 0.00 0.00 0.00 0.00 0.00 0.00 0.00 0.00 0.00 0.00 0.00 0.00 0.00 0.00 0.00 0.00 0.00 0.00 0.00 0.00 0.00 0.00 0.00 0.00 0.00 0.00 0.00 0.00 0.00 0.01 0.01 0.01 0.01 0.01 0.01
MSLP
1011.70 1012.77 1013.88 1014.82 1015.41 1015.52 1015.11 1014.22 1013.01 1011.66 1010.41 1009.43 1008.83 1008.62 1008.75 1009.10 1009.52 1009.87 1010.07 1010.11 1010.02 1009.89 1009.81 1009.86 1010.08 1010.45 1010.93 1011.44 1011.92 1012.31 1012.60 1012.80 1012.95 1013.09 1013.27 1013.50 1013.78 1014.07 1014.34 1014.56 1014.70 1014.79 1014.83 1014.86 1014.91 1014.99 1015.12 1015.28 1015.43
1012.19 1013.35 1014.44 1015.25 1015.61 1015.43 1014.72 1013.57 1012.17 1010.73 1009.47 1008.55 1008.04 1007.94 1008.17 1008.57 1009.02 1009.38 1009.59 1009.66 1009.62 1009.57 1009.59 1009.74 1010.05 1010.49 1011.00 1011.51 1011.97 1012.33 1012.59 1012.78 1012.93 1013.10 1013.31 1013.56 1013.85 1014.14 1014.38 1014.56 1014.67 1014.72 1014.75 1014.78 1014.84 1014.95 1015.11 1015.28 1015.45
1012.77 1013.96 1014.96 1015.57 1015.67 1015.20 1014.21 1012.85 1011.31 1009.84 1008.63 1007.81 1007.43 1007.46 1007.77 1008.23 1008.69 1009.05 1009.27 1009.35 1009.36 1009.38 1009.49 1009.73 1010.12 1010.60 1011.13 1011.63 1012.05 1012.37 1012.59 1012.76 1012.91 1013.09 1013.32 1013.60 1013.89 1014.17 1014.40 1014.55 1014.63 1014.66 1014.68 1014.72 1014.80 1014.93 1015.11 1015.31 1015.49
1013.40 1014.55 1015.40 1015.78 1015.61 1014.86 1013.64 1012.12 1010.52 1009.08 1007.97 1007.29 1007.06 1007.21 1007.61 1008.11 1008.58 1008.93 1009.13 1009.23 1009.28 1009.37 1009.56 1009.88 1010.32 1010.83 1011.34 1011.80 1012.17 1012.43 1012.61 1012.75 1012.89 1013.09 1013.33 1013.63 1013.93 1014.20 1014.41 1014.55 1014.61 1014.64 1014.66 1014.71 1014.81 1014.97 1015.17 1015.38 1015.56
1014.01 1015.05 1015.71 1015.85 1015.41 1014.43 1013.04 1011.44 1009.86 1008.50 1007.54 1007.02 1006.94 1007.20 1007.66 1008.18 1008.64 1008.97 1009.17 1009.29 1009.38 1009.54 1009.79 1010.17 1010.64 1011.15 1011.63 1012.03 1012.32 1012.51 1012.63 1012.74 1012.89 1013.09 1013.36 1013.66 1013.98 1014.25 1014.45 1014.57 1014.63 1014.66 1014.69 1014.76 1014.89 1015.07 1015.28 1015.48 1015.66
1014.52 1015.40 1015.84 1015.73 1015.06 1013.91 1012.43 1010.82 1009.32 1008.10 1007.30 1006.95 1007.00 1007.34 1007.84 1008.36 1008.80 1009.12 1009.32 1009.45 1009.60 1009.81 1010.13 1010.54 1011.03 1011.51 1011.93 1012.25 1012.47 1012.59 1012.67 1012.75 1012.89 1013.11 1013.39 1013.72 1014.04 1014.31 1014.51 1014.62 1014.67 1014.70 1014.74 1014.83 1014.97 1015.17 1015.39 1015.59 1015.76
1014.86 1015.53 1015.74 1015.41 1014.56 1013.30 1011.80 1010.26 1008.87 1007.83 1007.20 1007.00 1007.15 1007.55 1008.05 1008.55 1008.96 1009.25 1009.46 1009.63 1009.83 1010.11 1010.48 1010.92 1011.40 1011.84 1012.20 1012.45 1012.59 1012.65 1012.69 1012.76 1012.91 1013.14 1013.45 1013.79 1014.11 1014.38 1014.56 1014.65 1014.69 1014.71 1014.76 1014.86 1015.01 1015.22 1015.44 1015.64 1015.80
1014.94 1015.40 1015.38 1014.86 1013.89 1012.59 1011.13 1009.71 1008.49 1007.63 1007.16 1007.07 1007.29 1007.70 1008.18 1008.63 1009.01 1009.29 1009.52 1009.73 1010.00 1010.34 1010.76 1011.23 1011.69 1012.09 1012.39 1012.57 1012.64 1012.66 1012.69 1012.76 1012.93 1013.19 1013.51 1013.85 1014.17 1014.41 1014.56 1014.63 1014.65 1014.65 1014.69 1014.79 1014.95 1015.16 1015.38 1015.58 1015.73
1014.77 1015.01 1014.79 1014.13 1013.09 1011.82 1010.46 1009.19 1008.15 1007.46 1007.13 1007.12 1007.36 1007.75 1008.18 1008.58 1008.92 1009.20 1009.46 1009.73 1010.07 1010.48 1010.94 1011.42 1011.87 1012.23 1012.47 1012.59 1012.63 1012.63 1012.65 1012.75 1012.94 1013.22 1013.55 1013.89 1014.18 1014.39 1014.50 1014.53 1014.51 1014.49 1014.51 1014.60 1014.76 1014.96 1015.18 1015.38 1015.53
1014.35 1014.40 1014.03 1013.28 1012.24 1011.04 1009.82 1008.74 1007.89 1007.36 1007.13 1007.17 1007.40 1007.73 1008.10 1008.44 1008.74 1009.03 1009.32 1009.65 1010.05 1010.52 1011.02 1011.50 1011.93 1012.24 1012.44 1012.53 1012.54 1012.55 1012.59 1012.71 1012.93 1013.22 1013.56 1013.88 1014.13 1014.29 1014.35 1014.34 1014.28 1014.23 1014.23 1014.30 1014.45 1014.65 1014.86 1015.05 1015.20
1013.78 1013.67 1013.20 1012.42 1011.44 1010.37 1009.33 1008.45 1007.78 1007.39 1007.23 1007.29 1007.48 1007.74 1008.02 1008.30 1008.57 1008.86 1009.19 1009.57 1010.03 1010.53 1011.04 1011.52 1011.91 1012.18 1012.34 1012.40 1012.41 1012.43 1012.50 1012.65 1012.89 1013.19 1013.51 1013.80 1014.01 1014.12 1014.14 1014.08 1013.99 1013.92 1013.90 1013.95 1014.08 1014.26 1014.45 1014.63 1014.77
1013.18 1012.97 1012.45 1011.70 1010.83 1009.93 1009.10 1008.42 1007.93 1007.65 1007.55 1007.59 1007.72 1007.90 1008.09 1008.31 1008.55 1008.83 1009.18 1009.60 1010.08 1010.59 1011.09 1011.53 1011.87 1012.10 1012.22 1012.26 1012.28 1012.31 1012.41 1012.58 1012.83 1013.12 1013.42 1013.67 1013.83 1013.90 1013.88 1013.79 1013.69 1013.61 1013.58 1013.62 1013.73 1013.88 1014.03 1014.18 1014.28
1012.69 1012.42 1011.91 1011.25 1010.53 1009.83 1009.22 1008.75 1008.43 1008.24 1008.17 1008.18 1008.24 1008.32 1008.43 1008.58 1008.78 1009.05 1009.40 1009.82 1010.29 1010.77 1011.22 1011.60 1011.87 1012.04 1012.12 1012.15 1012.17 1012.22 1012.33 1012.51 1012.76 1013.03 1013.28 1013.48 1013.61 1013.65 1013.61 1013.53 1013.44 1013.37 1013.35 1013.38 1013.46 1013.56 1013.66 1013.73 1013.77
1012.44 1012.15 1011.70 1011.17 1010.63 1010.15 1009.77 1009.50 1009.32 1009.21 1009.15 1009.11 1009.09 1009.08 1009.10 1009.18 1009.33 1009.57 1009.89 1010.28 1010.70 1011.11 1011.47 1011.76 1011.95 1012.05 1012.09 1012.10 1012.12 1012.18 1012.30 1012.48 1012.69 1012.92 1013.12 1013.28 1013.37 1013.39 1013.37 1013.32 1013.27 1013.24 1013.25 1013.27 1013.31 1013.35 1013.35 1013.32 1013.26
1012.44 1012.18 1011.82 1011.45 1011.12 1010.87 1010.71 1010.61 1010.55 1010.50 1010.43 1010.33 1010.22 1010.11 1010.04 1010.04 1010.14 1010.32 1010.59 1010.91 1011.25 1011.56 1011.81 1011.99 1012.09 1012.12 1012.12 1012.12 1012.14 1012.21 1012.33 1012.48 1012.66 1012.83 1012.97 1013.07 1013.13 1013.16 1013.16 1013.17 1013.18 1013.21 1013.25 1013.28 1013.27 1013.22 1013.11 1012.95 1012.76
1012.66 1012.45 1012.22 1012.03 1011.92 1011.89 1011.92 1011.98 1012.01 1011.98 1011.88 1011.71 1011.50 1011.29 1011.13 1011.05 1011.07 1011.20 1011.39 1011.63 1011.86 1012.05 1012.19 1012.26 1012.26 1012.24 1012.21 1012.21 1012.24 1012.31 1012.42 1012.54 1012.67 1012.77 1012.84 1012.89 1012.91 1012.94 1012.99 1013.06 1013.15 1013.25 1013.32 1013.35 1013.29 1013.15 1012.91 1012.59 1012.24
1012.99 1012.87 1012.79 1012.79 1012.89 1013.07 1013.28 1013.45 1013.54 1013.50 1013.33 1013.06 1012.74 1012.43 1012.17 1012.01 1011.96 1012.02 1012.13 1012.28 1012.40 1012.48 1012.51 1012.48 1012.42 1012.36 1012.32 1012.33 1012.38 1012.47 1012.57 1012.67 1012.73 1012.75 1012.75 1012.73 1012.72 1012.74 1012.82 1012.95 1013.11 1013.27 1013.38 1013.40 1013.30 1013.05 1012.68 1012.21 1011.70
1013.29 1013.28 1013.37 1013.58 1013.89 1014.26 1014.61 1014.86 1014.96 1014.87 1014.61 1014.22 1013.78 1013.35 1013.00 1012.76 1012.64 1012.63 1012.68 1012.74 1012.78 1012.76 1012.70 1012.61 1012.51 1012.44 1012.42 1012.46 1012.55 1012.67 1012.77 1012.83 1012.84 1012.78 1012.69 1012.59 1012.53 1012.54 1012.63 1012.80 1013.02 1013.22 1013.35 1013.36 1013.21 1012.89 1012.40 1011.80 1011.15
1013.44 1013.58 1013.86 1014.28 1014.80 1015.33 1015.79 1016.09 1016.16 1015.98 1015.59 1015.06 1014.48 1013.93 1013.48 1013.17 1013.00 1012.95 1012.95 1012.95 1012.93 1012.86 1012.74 1012.61 1012.50 1012.45 1012.48 1012.57 1012.71 1012.86 1012.98 1013.02 1012.97 1012.84 1012.66 1012.48 1012.36 1012.33 1012.40 1012.58 1012.82 1013.05 1013.19 1013.19 1013.00 1012.61 1012.04 1011.35 1010.61
1013.37 1013.69 1014.18 1014.82 1015.54 1016.23 1016.77 1017.07 1017.07 1016.77 1016.23 1015.54 1014.81 1014.14 1013.60 1013.23 1013.03 1012.95 1012.93 1012.92 1012.87 1012.77 1012.64 1012.51 1012.41 1012.40 1012.48 1012.64 1012.84 1013.03 1013.16 1013.19 1013.10 1012.90 1012.64 1012.38 1012.18 1012.09 1012.13 1012.29 1012.51 1012.74 1012.88 1012.87 1012.66 1012.24 1011.63 1010.90 1010.12
1013.09 1013.61 1014.34 1015.21 1016.13 1016.95 1017.54 1017.82 1017.73 1017.28 1016.57 1015.70 1014.82 1014.03 1013.42 1013.01 1012.80 1012.72 1012.72 1012.72 1012.68 1012.59 1012.47 1012.35 1012.29 1012.31 1012.44 1012.66 1012.91 1013.15 1013.30 1013.32 1013.20 1012.95 1012.62 1012.28 1012.00 1011.84 1011.81 1011.92 1012.11 1012.31 1012.44 1012.42 1012.21 1011.80 1011.21 1010.49 1009.73
1012.70 1013.43 1014.40 1015.50 1016.59 1017.52 1018.16 1018.38 1018.18 1017.58 1016.69 1015.66 1014.64 1013.75 1013.07 1012.65 1012.45 1012.41 1012.44 1012.48 1012.48 1012.42 1012.32 1012.22 1012.18 1012.23 1012.39 1012.64 1012.93 1013.19 1013.35 1013.37 1013.23 1012.95 1012.57 1012.17 1011.82 1011.59 1011.49 1011.53 1011.67 1011.83 1011.93 1011.91 1011.72 1011.35 1010.81 1010.17 1009.48
1012.31 1013.26 1014.45 1015.75 1017.00 1018.02 1018.66 1018.84 1018.52 1017.77 1016.72 1015.55 1014.41 1013.44 1012.73 1012.31 1012.14 1012.15 1012.25 1012.35 1012.39 1012.36 1012.28 1012.19 1012.15 1012.20 1012.36 1012.60 1012.89 1013.15 1013.32 1013.34 1013.19 1012.89 1012.49 1012.05 1011.65 1011.35 1011.18 1011.16 1011.23 1011.33 1011.41 1011.39 1011.23 1010.92 1010.47 1009.93 1009.36
1012.06 1013.18 1014.56 1016.03 1017.39 1018.46 1019.10 1019.21 1018.79 1017.91 1016.74 1015.45 1014.23 1013.22 1012.51 1012.11 1012.00 1012.08 1012.24 1012.39 1012.48 1012.47 1012.40 1012.30 1012.23 1012.24 1012.36 1012.56 1012.81 1013.05 1013.20 1013.21 1013.07 1012.77 1012.36 1011.91 1011.48 1011.14 1010.92 1010.82 1010.83 1010.88 1010.92 1010.90 1010.78 1010.54 1010.20 1009.78 1009.35
1012.00 1013.26 1014.76 1016.32 1017.75 1018.84 1019.44 1019.48 1018.98 1018.01 1016.76 1015.42 1014.17 1013.16 1012.47 1012.13 1012.07 1012.22 1012.44 1012.65 1012.76 1012.77 1012.68 1012.54 1012.42 1012.36 1012.40 1012.52 1012.70 1012.88 1013.01 1013.01 1012.87 1012.59 1012.20 1011.76 1011.33 1010.96 1010.69 1010.54 1010.48 1010.48 1010.49 1010.46 1010.37 1010.20 1009.96 1009.67 1009.36
1012.16 1013.47 1015.02 1016.60 1018.02 1019.07 1019.62 1019.61 1019.05 1018.04 1016.77 1015.43 1014.20 1013.24 1012.61 1012.33 1012.35 1012.55 1012.82 1013.06 1013.19 1013.19 1013.07 1012.88 1012.68 1012.53 1012.46 1012.49 1012.58 1012.69 1012.76 1012.74 1012.61 1012.35 1012.00 1011.59 1011.17 1010.80 1010.51 1010.31 1010.19 1010.13 1010.10 1010.05 1009.98 1009.86 1009.70 1009.52 1009.34
1012.46 1013.75 1015.25 1016.78 1018.12 1019.09 1019.57 1019.51 1018.92 1017.93 1016.70 1015.43 1014.29 1013.41 1012.88 1012.67 1012.75 1013.00 1013.30 1013.55 1013.68 1013.65 1013.49 1013.24 1012.95 1012.71 1012.54 1012.45 1012.44 1012.47 1012.49 1012.45 1012.32 1012.09 1011.77 1011.40 1011.01 1010.65 1010.34 1010.10 1009.93 1009.81 1009.72 1009.65 1009.57 1009.48 1009.38 1009.29 1009.20
1012.80 1014.00 1015.38 1016.77 1017.97 1018.83 1019.23 1019.13 1018.56 1017.63 1016.50 1015.36 1014.36 1013.61 1013.18 1013.05 1013.18 1013.45 1013.76 1014.00 1014.10 1014.04 1013.84 1013.53 1013.18 1012.85 1012.58 1012.41 1012.31 1012.26 1012.22 1012.14 1012.01 1011.80 1011.52 1011.18 1010.82 1010.47 1010.15 1009.88 1009.66 1009.48 1009.34 1009.22 1009.12 1009.04 1008.98 1008.93 1008.92
1013.10 1014.15 1015.34 1016.53 1017.55 1018.26 1018.57 1018.45 1017.94 1017.12 1016.16 1015.19 1014.36 1013.77 1013.45 1013.40 1013.56 1013.83 1014.10 1014.31 1014.37 1014.27 1014.03 1013.68 1013.29 1012.91 1012.59 1012.34 1012.16 1012.05 1011.95 1011.85 1011.70 1011.50 1011.23 1010.93 1010.59 1010.25 1009.92 1009.62 1009.36 1009.13 1008.93 1008.76 1008.62 1008.52 1008.46 1008.45 1008.47
1013.29 1014.14 1015.11 1016.06 1016.87 1017.43 1017.66 1017.55 1017.12 1016.46 1015.69 1014.94 1014.31 1013.88 1013.67 1013.67 1013.84 1014.07 1014.29 1014.43 1014.44 1014.31 1014.04 1013.68 1013.27 1012.87 1012.52 1012.24 1012.02 1011.85 1011.71 1011.57 1011.40 1011.18 1010.92 1010.63 1010.30 1009.97 1009.64 1009.32 1009.01 1008.73 1008.48 1008.26 1008.08 1007.95 1007.88 1007.86 1007.90
Thickness
5831 5828 5825 5813 5793 5779 5779 5799 5819 5828 5840 5857 5866 5863 5851 5842 5831 5822 5846 5853 5848 5840 5834 5830 5826 5822 5818 5815 5811 5807 5803 5800 5796 5793 5790 5788 5785 5783 5781 5778 5776 5773 5771 5769 5767 5765 5763 5761 5760
5830 5827 5817 5800 5780 5769 5781 5810 5821 5833 5848 5859 5861 5860 5851 5845 5850 5844 5845 5848 5846 5840 5833 5829 5825 5821 5817 5813 5809 5806 5802 5799 5795 5792 5789 5786 5784 5781 5779 5777 5774 5772 5770 5768 5766 5764 5762 5761 5759
5830 5826 5804 5788 5778 5774 5789 5818 5830 5845 5860 5859 5852 5855 5849 5845 5850 5845 5846 5846 5841 5836 5831 5827 5823 5819 5815 5811 5808 5804 5800 5797 5794 5790 5787 5784 5782 5779 5777 5775 5773 5771 5769 5766 5764 5763 5761 5759 5758
5825 5811 5798 5782 5778 5796 5810 5827 5838 5844 5853 5858 5852 5841 5847 5859 5857 5850 5846 5842 5837 5832 5828 5824 5820 5817 5813 5809 5806 5802 5799 5795 5792 5789 5786 5783 5780 5777 5775 5773 5771 5769 5767 5765 5763 5761 5759 5757 5756
5819 5799 5781 5775 5787 5810 5827 5840 5844 5840 5842 5849 5848 5833 5835 5854 5860 5850 5843 5838 5833 5827 5824 5821 5817 5814 5810 5806 5803 5799 5796 5793 5790 5787 5784 5781 5778 5775 5773 5771 5769 5767 5765 5763 5761 5759 5757 5755 5754
5803 5791 5773 5772 5793 5817 5832 5846 5846 5840 5839 5844 5842 5830 5830 5847 5848 5844 5840 5834 5830 5824 5820 5816 5814 5810 5807 5803 5800 5796 5793 5790 5787 5784 5781 5778 5776 5773 5771 5769 5766 5764 5762 5760 5758 5756 5755 5753 5752
5795 5785 5777 5785 5794 5808 5832 5846 5842 5839 5837 5839 5843 5824 5826 5837 5843 5843 5837 5830 5824 5820 5816 5812 5809 5806 5803 5800 5797 5793 5790 5787 5784 5781 5778 5776 5773 5771 5768 5766 5764 5761 5760 5758 5756 5754 5752 5751 5750
5806 5787 5779 5783 5790 5802 5830 5839 5842 5839 5835 5847 5844 5822 5818 5833 5840 5838 5830 5823 5818 5814 5810 5808 5805 5803 5800 5796 5793 5790 5787 5784 5781 5778 5775 5772 5770 5767 5765 5763 5760 5759 5757 5755 5754 5752 5750 5749 5747
5810 5777 5767 5779 5790 5804 5827 5827 5835 5843 5838 5838 5839 5834 5835 5840 5837 5827 5818 5810 5807 5805 5804 5803 5801 5799 5796 5793 5790 5787 5784 5781 5778 5775 5772 5769 5767 5764 5762 5760 5757 5755 5754 5752 5750 5749 5748 5746 5745
5792 5766 5778 5799 5807 5810 5820 5822 5827 5825 5819 5819 5823 5830 5836 5834 5827 5816 5807 5800 5797 5795 5796 5798 5797 5794 5792 5789 5786 5783 5780 5777 5774 5771 5768 5766 5764 5761 5759 5756 5755 5753 5751 5748 5746 5745 5744 5743 5742
5790 5781 5797 5809 5817 5817 5815 5820 5827 5816 5803 5810 5813 5816 5820 5819 5813 5807 5801 5798 5794 5792 5791 5791 5791 5789 5787 5785 5781 5778 5775 5773 5770 5767 5764 5762 5760 5757 5755 5753 5750 5749 5747 5745 5743 5741 5740 5739 5738
5788 5795 5805 5811 5821 5818 5817 5819 5817 5814 5811 5817 5816 5814 5810 5804 5800 5796 5792 5789 5788 5786 5785 5787 5787 5784 5782 5780 5777 5774 5771 5768 5766 5764 5761 5758 5755 5753 5750 5749 5747 5746 5744 5742 5740 5738 5736 5735 5734
5786 5793 5805 5814 5817 5818 5819 5812 5809 5805 5811 5813 5811 5806 5801 5795 5791 5788 5786 5781 5781 5781 5781 5781 5781 5779 5777 5774 5771 5769 5767 5764 5761 5759 5757 5754 5751 5748 5745 5743 5742 5742 5740 5739 5736 5734 5734 5733 5732
5790 5795 5801 5808 5811 5815 5810 5803 5798 5791 5801 5799 5795 5790 5788 5785 5781 5779 5776 5771 5772 5773 5774 5775 5773 5771 5770 5768 5765 5763 5761 5758 5756 5753 5751 5749 5746 5743 5741 5738 5736 5736 5736 5734 5733 5732 5730 5729 5729
5796 5785 5789 5798 5802 5805 5802 5778 5780 5786 5789 5784 5782 5779 5777 5776 5775 5772 5769 5766 5764 5764 5766 5766 5766 5765 5763 5760 5758 5756 5753 5751 5749 5746 5744 5741 5739 5737 5735 5733 5730 5729 5729 5729 5728 5727 5726 5725 5725
5780 5768 5761 5783 5792 5797 5782 5748 5765 5777 5776 5770 5769 5769 5767 5764 5765 5765 5763 5761 5759 5759 5758 5759 5760 5757 5755 5753 5751 5749 5746 5743 5741 5738 5736 5733 5732 5730 5728 5726 5724 5723 5722 5722 5722 5721 5720 5720 5720
5753 5744 5751 5769 5785 5784 5766 5744 5754 5763 5764 5758 5757 5758 5756 5755 5755 5757 5757 5756 5755 5755 5754 5752 5751 5749 5747 5745 5743 5741 5738 5735 5733 5730 5727 5726 5723 5722 5721 5719 5719 5718 5717 5717 5716 5716 5714 5714 5715
5739 5745 5750 5755 5769 5769 5753 5740 5746 5753 5752 5749 5749 5747 5747 5746 5747 5751 5752 5751 5750 5749 5748 5746 5744 5741 5739 5737 5734 5732 5729 5727 5725 5723 5720 5718 5716 5715 5714 5713 5711 5711 5710 5710 5709 5709 5710 5709 5709
5760 5752 5748 5756 5768 5757 5742 5734 5737 5741 5740 5738 5740 5740 5739 5740 5745 5747 5747 5746 5744 5742 5740 5739 5736 5734 5732 5728 5724 5721 5718 5717 5716 5714 5713 5711 5710 5708 5707 5706 5704 5703 5703 5703 5703 5703 5703 5703 5704
5762 5751 5747 5752 5761 5749 5734 5729 5733 5734 5730 5730 5731 5733 5733 5735 5737 5738 5740 5740 5738 5736 5735 5732 5730 5727 5725 5721 5718 5715 5711 5709 5707 5706 5705 5704 5702 5700 5699 5697 5696 5696 5695 5695 5695 5696 5695 5697 5698
5758 5751 5749 5746 5746 5743 5732 5716 5717 5723 5727 5728 5730 5730 5732 5734 5733 5734 5736 5735 5735 5733 5730 5728 5724 5720 5717 5714 5710 5706 5703 5699 5696 5694 5693 5694 5693 5692 5690 5689 5688 5688 5687 5687 5688 5688 5688 5688 5690
5748 5764 5761 5751 5730 5711 5718 5695 5705 5709 5714 5718 5723 5726 5730 5732 5735 5735 5734 5733 5732 5731 5729 5724 5719 5715 5711 5707 5702 5696 5691 5686 5686 5685 5684 5684 5684 5683 5682 5681 5680 5679 5679 5679 5680 5681 5680 5681 5681
5760 5766 5758 5746 5723 5707 5708 5695 5696 5704 5705 5712 5721 5726 5729 5732 5734 5734 5733 5732 5730 5728 5723 5718 5713 5708 5705 5700 5695 5689 5684 5680 5678 5676 5675 5674 5673 5673 5672 5671 5671 5670 5670 5671 5672 5672 5673 5674 5675
5770 5753 5741 5727 5712 5690 5695 5690 5690 5699 5704 5713 5721 5725 5728 5730 5731 5731 5731 5728 5724 5721 5716 5710 5705 5700 5696 5692 5687 5681 5676 5673 5669 5666 5663 5662 5661 5662 5662 5661 5660 5660 5660 5661 5662 5663 5664 5665 5667
5759 5732 5708 5698 5685 5683 5695 5691 5693 5712 5718 5719 5720 5722 5725 5727 5727 5725 5722 5718 5715 5711 5707 5701 5696 5690 5687 5682 5678 5673 5669 5665 5660 5657 5654 5652 5650 5650 5650 5651 5650 5650 5650 5651 5652 5653 5654 5656 5658
5754 5738 5708 5691 5681 5680 5688 5685 5700 5722 5726 5724 5722 5721 5723 5723 5722 5719 5716 5712 5708 5704 5699 5693 5687 5681 5677 5672 5668 5664 5660 5656 5652 5649 5646 5643 5641 5641 5641 5641 5640 5640 5641 5641 5641 5642 5644 5646 5648
5752 5738 5735 5706 5689 5677 5681 5691 5707 5721 5720 5720 5720 5718 5718 5718 5717 5713 5709 5704 5700 5695 5690 5684 5678 5673 5668 5663 5659 5655 5651 5647 5644 5641 5638 5635 5633 5633 5632 5631 5630 5630 5630 5631 5631 5631 5633 5635 5638
5762 5749 5727 5706 5684 5675 5680 5685 5691 5708 5712 5715 5714 5713 5713 5713 5710 5705 5701 5697 5692 5688 5682 5677 5672 5666 5661 5656 5651 5648 5642 5639 5635 5632 5628 5626 5624 5623 5621 5620 5619 5619 5619 5619 5620 5621 5622 5624 5627
5750 5744 5728 5710 5701 5681 5672 5684 5717 5714 5715 5712 5712 5712 5710 5708 5703 5699 5696 5692 5687 5682 5676 5670 5664 5658 5653 5648 5643 5638 5634 5630 5626 5622 5619 5617 5614 5612 5610 5609 5608 5608 5608 5608 5608 5609 5611 5613 5616
5753 5745 5731 5710 5703 5695 5681 5687 5730 5722 5719 5715 5713 5713 5710 5705 5699 5695 5691 5686 5681 5675 5670 5664 5658 5652 5646 5641 5635 5630 5625 5621 5616 5612 5610 5607 5604 5602 5600 5598 5597 5596 5596 5596 5596 5597 5599 5601 5604